Location: Lombard
(41.8800°N, 88.0080°W)
Time: 23:40:51
(UTC-05:00)

Tiros 1 - Pass Details

Date: 31 January 2023
Orbit: 628 x 662 km, 48.4° (Epoch: 20 March)

Event Time Altitude Azimuth Distance (km) Brightness Sun altitude
Rises 01:30:17 0° 236° (SW) 2,902 - -59.6°
Reaches altitude 10° 01:32:35 10° 235° (SW) 2,000 - -59.3°
Maximum altitude 01:37:10 79° 150° (SSE) 648 - -58.7°
Drops below altitude 10° 01:41:50 10° 64° (ENE) 2,026 - -58.0°
Sets 01:44:11 0° 63° (ENE) 2,943 - -57.7°
